Cork, Ireland

11:36 PM IST on March 29, 2017 (GMT +0100)
Cork

Weather History for EICK - January, 2014

Change the Weather History Date:

Tuesday, January 21, 2014

  Actual Average Record
Temperature  
Mean Temperature 43 °F -  
Max Temperature 48 °F 46 °F 53 °F (2005)
Min Temperature 38 °F 37 °F 28 °F (2009)
Degree Days  
Heating Degree Days 22    
Moisture  
Dew Point 43 °F    
Average Humidity 94    
Maximum Humidity 100    
Minimum Humidity 82    
Precipitation  
Precipitation 0.04 in 0.16 in - ()
Sea Level Pressure  
Sea Level Pressure 29.50 in    
Wind  
Wind Speed 13 mph ()    
Max Wind Speed 20 mph    
Max Gust Speed 32 mph    
Visibility 7.1 miles    
Events Rain    
Averages and records for this station are not official NWS values.
T = Trace of Precipitation, MM = Missing Value Source: Averaged Metar Reports

Daily Weather History Graph

Daily Weather History Graph

Search for Another Location

Airport or City:

Trip Planner

Search our weather history database for the weather conditions in past years. The results will help you decide how hot, cold, wet, or windy it might be!

Date:

Astronomy

Jan. 21, 2014 Rise Set
Actual Time 8:28 AM GMT 5:02 PM GMT
Civil Twilight 7:50 AM GMT 5:40 PM GMT
Nautical Twilight 7:08 AM GMT 6:22 PM GMT
Astronomical Twilight 6:28 AM GMT 7:02 PM GMT
Moon 11:07 PM GMT (1/21) 10:10 AM GMT (1/21)
Length of Visible Light 9h 50m
Length of Day
8h 34m
Waning Gibbous, 76% of the Moon is Illuminated
Jan 21
Waning Gibbous
Jan 24
Last Quarter
Jan 30
New
Feb 6
First Quarter
Feb 14
Full

Hourly Weather History & Observations

Time (GMT) Temp. Windchill Dew Point Humidity Pressure Visibility Wind Dir Wind Speed Gust Speed Precip Events Conditions
12:00 AM 45 °F - 41 °F 82% 29.70 in 19 mi South 15.7 mph - - Rain Light Rain
12:00 AM 44.6 °F 37.4 °F 41.0 °F 87% 29.68 in 6.2 mi South 16.1 mph - N/A Rain Light Rain
12:30 AM 44.6 °F 37.4 °F 41.0 °F 87% 29.65 in 6.2 mi South 16.1 mph 27.6 mph N/A   Mostly Cloudy
1:00 AM 45 °F - 42 °F 86% 29.67 in 16 mi South 17.9 mph - - Rain Light Rain
1:00 AM 44.6 °F 37.2 °F 42.8 °F 93% 29.65 in 6.2 mi South 17.3 mph - N/A Rain Light Rain
1:30 AM 44.6 °F 37.8 °F 42.8 °F 93% 29.62 in 3.7 mi South 15.0 mph - N/A Rain Light Rain
2:00 AM 44 °F - 44 °F 97% 29.65 in 2 mi South 15.7 mph - - Rain Light Rain
2:00 AM 44.6 °F 37.8 °F 42.8 °F 93% 29.62 in 1.9 mi South 15.0 mph - N/A Rain Light Rain
2:30 AM 44.6 °F 36.6 °F 44.6 °F 100% 29.59 in 1.9 mi South 19.6 mph 32.2 mph N/A Rain Light Rain
3:00 AM 45 °F - 44 °F 97% 29.61 in 2 mi South 17.9 mph - - Rain Light Rain
3:00 AM 44.6 °F 36.9 °F 44.6 °F 100% 29.59 in 1.9 mi South 18.4 mph - N/A Rain Light Rain
3:30 AM 44.6 °F 37.2 °F 44.6 °F 100% 29.56 in 2.2 mi South 17.3 mph 28.8 mph N/A Rain Light Rain
4:00 AM 45 °F - 45 °F 100% 29.57 in 2 mi South 17.9 mph - - Rain Light Rain
4:00 AM 44.6 °F 37.2 °F 44.6 °F 100% 29.53 in 1.9 mi South 17.3 mph - N/A Rain Light Rain
4:30 AM 46.4 °F 39.2 °F 44.6 °F 93% 29.53 in 1.9 mi South 18.4 mph 31.1 mph N/A Rain Light Rain
5:00 AM 46 °F - 46 °F 97% 29.54 in 2 mi South 17.9 mph - - Rain Light Rain
5:00 AM 46.4 °F 39.2 °F 46.4 °F 100% 29.50 in 1.6 mi South 18.4 mph - N/A Rain Light Rain
5:30 AM 46.4 °F 39.5 °F 46.4 °F 100% 29.50 in 1.6 mi South 17.3 mph - N/A Rain Light Rain
6:00 AM 46 °F - 46 °F 100% 29.51 in 1 mi South 15.7 mph - - Rain Light Rain
6:00 AM 46.4 °F 39.8 °F 46.4 °F 100% 29.47 in 1.1 mi South 16.1 mph - N/A Rain Light Rain
6:30 AM 46.4 °F 39.5 °F 46.4 °F 100% 29.47 in 1.1 mi SSW 17.3 mph - N/A Rain Light Rain
7:00 AM 47 °F - 47 °F 100% 29.51 in 1 mi SSW 15.7 mph - - Rain Light Rain
7:00 AM 46.4 °F 40.1 °F 46.4 °F 100% 29.47 in 1.1 mi SSW 15.0 mph - N/A Rain Light Rain
7:30 AM 46.4 °F 41.1 °F 46.4 °F 100% 29.47 in 5.0 mi SSW 11.5 mph - N/A Rain Light Rain
8:00 AM 47 °F - 47 °F 98% 29.51 in 7 mi SSW 8.9 mph - - Rain Light Rain
8:00 AM 46.4 °F 41.9 °F 46.4 °F 100% 29.47 in 6.2 mi SSW 9.2 mph - N/A   Mostly Cloudy
8:30 AM 46.4 °F 41.5 °F 46.4 °F 100% 29.50 in 5.0 mi SSW 10.4 mph - N/A   Mostly Cloudy
9:00 AM 46 °F - 46 °F 100% 29.52 in 9 mi SW 8.9 mph - -   Mist
9:00 AM 46.4 °F 41.9 °F 46.4 °F 100% 29.50 in 6.2 mi SW 9.2 mph - N/A   Mostly Cloudy
9:30 AM 46.4 °F 42.4 °F 46.4 °F 100% 29.47 in 6.2 mi SSW 8.1 mph - N/A   Mostly Cloudy
10:00 AM 47 °F - 46 °F 96% 29.50 in 11 mi SSW 8.9 mph - -   Mostly Cloudy
10:00 AM 46.4 °F 42.4 °F 46.4 °F 100% 29.47 in 6.2 mi SSW 8.1 mph - N/A   Mostly Cloudy
10:30 AM 46.4 °F 42.9 °F 44.6 °F 93% 29.47 in 6.2 mi SSW 6.9 mph - N/A   Mostly Cloudy
11:00 AM 46 °F - 45 °F 94% 29.51 in 11 mi SSW 6.7 mph - -   Mostly Cloudy
11:00 AM 46.4 °F 43.5 °F 44.6 °F 93% 29.47 in 6.2 mi SSW 5.8 mph - N/A   Mostly Cloudy
11:30 AM 46.4 °F 41.9 °F 44.6 °F 93% 29.47 in 6.2 mi SSW 9.2 mph - N/A   Mostly Cloudy
12:00 PM 47 °F - 46 °F 92% 29.49 in 12 mi SSW 11.2 mph - -   Partly Cloudy
12:00 PM 46.4 °F 41.1 °F 46.4 °F 100% 29.47 in 6.2 mi SSW 11.5 mph - N/A   Mostly Cloudy
12:30 PM 48.2 °F - 46.4 °F 93% 29.44 in 6.2 mi SW 11.5 mph - N/A   Mostly Cloudy
1:00 PM 48 °F - 46 °F 91% 29.47 in 12 mi SW 17.9 mph - -   Mostly Cloudy
1:00 PM 48.2 °F - 46.4 °F 93% 29.44 in 6.2 mi SW 17.3 mph - N/A   Mostly Cloudy
1:30 PM 48.2 °F - 44.6 °F 87% 29.44 in 6.2 mi SW 17.3 mph - N/A   Mostly Cloudy
2:00 PM 47 °F - 44 °F 86% 29.46 in 16 mi SW 15.7 mph - - Rain Light Rain Showers
2:00 PM 46.4 °F 40.1 °F 44.6 °F 93% 29.44 in 6.2 mi SW 15.0 mph - N/A   Mostly Cloudy
2:30 PM 46.4 °F 40.7 °F 44.6 °F 93% 29.44 in 6.2 mi SW 12.7 mph - N/A   Mostly Cloudy
3:00 PM 47 °F - 44 °F 87% 29.46 in 16 mi SW 13.4 mph - - Rain Light Rain Showers
3:00 PM 46.4 °F 40.7 °F 44.6 °F 93% 29.44 in 6.2 mi SW 12.7 mph - N/A Rain Light Rain Showers
3:30 PM 44.6 °F 39.7 °F 42.8 °F 93% 29.44 in 6.2 mi SW 9.2 mph - N/A   Mostly Cloudy
4:00 PM 44 °F - 42 °F 88% 29.46 in 16 mi WSW 11.2 mph - - Rain Light Rain Showers
4:00 PM 44.6 °F 38.8 °F 41.0 °F 87% 29.44 in 6.2 mi WSW 11.5 mph - N/A   Mostly Cloudy
4:30 PM 42.8 °F 36.2 °F 41.0 °F 93% 29.44 in 6.2 mi SW 12.7 mph - N/A   Mostly Cloudy
5:00 PM 43 °F - 41 °F 90% 29.47 in 16 mi SW 13.4 mph - - Rain Light Rain Showers
5:00 PM 42.8 °F 36.2 °F 41.0 °F 93% 29.44 in 6.2 mi SW 12.7 mph - N/A Rain Light Rain Showers
5:30 PM 42.8 °F 36.6 °F 39.2 °F 87% 29.44 in 6.2 mi SW 11.5 mph - N/A   Mostly Cloudy
6:00 PM 42 °F - 40 °F 88% 29.48 in 16 mi SW 13.4 mph - - Rain Light Rain Showers
6:00 PM 42.8 °F 36.2 °F 39.2 °F 87% 29.44 in 6.2 mi SW 12.7 mph - N/A   Mostly Cloudy
6:30 PM 41.0 °F 34.3 °F 39.2 °F 93% 29.44 in 6.2 mi SW 11.5 mph - N/A   Mostly Cloudy
7:00 PM 40 °F - 38 °F 91% 29.49 in 16 mi SW 11.2 mph - -   Scattered Clouds
7:00 PM 41.0 °F 34.3 °F 39.2 °F 93% 29.44 in 6.2 mi SW 11.5 mph - N/A   Scattered Clouds
7:30 PM 41.0 °F 34.7 °F 39.2 °F 93% 29.47 in 6.2 mi SW 10.4 mph - N/A   Partly Cloudy
8:00 PM 39 °F - 37 °F 92% 29.50 in 16 mi SSW 6.7 mph - -   Scattered Clouds
8:00 PM 39.2 °F 35.0 °F 37.4 °F 93% 29.47 in 6.2 mi SSW 5.8 mph - N/A   Partly Cloudy
8:30 PM 39.2 °F 33.0 °F 37.4 °F 93% 29.47 in 6.2 mi SW 9.2 mph - N/A   Partly Cloudy
9:00 PM 40 °F - 38 °F 90% 29.49 in 16 mi SW 13.4 mph - -   Scattered Clouds
9:00 PM 39.2 °F 31.6 °F 37.4 °F 93% 29.47 in 6.2 mi SW 12.7 mph - N/A   Partly Cloudy
9:30 PM 41.0 °F 33.1 °F 39.2 °F 93% 29.47 in 6.2 mi SW 15.0 mph - N/A   Partly Cloudy
10:00 PM 40 °F - 39 °F 93% 29.49 in 16 mi SSW 11.2 mph - -   Scattered Clouds
10:00 PM 41.0 °F 34.7 °F 39.2 °F 93% 29.47 in 6.2 mi SSW 10.4 mph - N/A   Partly Cloudy
10:30 PM 41.0 °F 34.3 °F 39.2 °F 93% 29.47 in 6.2 mi SW 11.5 mph - N/A   Partly Cloudy
11:00 PM 41 °F - 39 °F 91% 29.50 in 16 mi SW 11.2 mph - -   Scattered Clouds
11:00 PM 41.0 °F 34.3 °F 39.2 °F 93% 29.47 in 6.2 mi SW 11.5 mph - N/A   Partly Cloudy
11:30 PM 42.8 °F 36.2 °F 41.0 °F 93% 29.47 in 6.2 mi SW 12.7 mph - N/A   Scattered Clouds